Regional Weather Roundup
Issued by NWS

Home | Current Version | Previous Version | Text Only | Print | Product List | Glossary Off
Versions: 1 2 3 4 5 6 7 8 9 10 11 12 13 14 15 16 17 18 19 20 21 22 23 24 25 26 27 28 29 30 31 32 33 34 35 36 37 38 39 40 41 42 43 44 45 46 47 48 49 50

000
ASUS43 KMPX 222010
RWRMN
WEATHER ROUNDUP FOR MINNESOTA
NATIONAL WEATHER SERVICE TWIN CITIES/CHANHASSEN MN
200 PM CST WED NOV 22 2017


NOTE: "FAIR" INDICATES FEW OR NO CLOUDS BELOW 12,000 FEET WITH NO
SIGNIFICANT WEATHER AND/OR OBSTRUCTIONS TO VISIBILITY. N/A MEANS
CURRENT SKY AND/OR WEATHER CONDITIONS ARE NOT AVAILABLE.

MNZ060>063-068>070-222100-
   Twin Cities Metro

CITY           SKY/WX    TMP DP  RH WIND       PRES   REMARKS
TWIN CITIES    CLOUDY    26  13  57 S10       30.16F WCI  16
ST PAUL        CLOUDY    25  14  63 S8        30.19F WCI  16
CRYSTAL        CLOUDY    25  11  55 S12       30.15F WCI  14
BLAINE         CLOUDY    27  16  63 S6        30.16F WCI  20
LAKEVILLE      CLOUDY    25  14  63 S7        30.17F WCI  17
EDEN PRAIRIE   CLOUDY    28  13  53 S12       30.15F WCI  18
SOUTH ST PAUL  CLOUDY    27  13  56 S7        30.17F WCI  19
LAKE ELMO      FLURRIES  27  18  69 S9        30.18F WCI  17
$$
MNZ001>005-007-008-013>017-022>024-027-028-222100-
   Northwest Minnesota

CITY           SKY/WX    TMP DP  RH WIND       PRES   REMARKS
BEMIDJI        LGT SNOW  18  15  88 S9        29.99F VSB 3/4 WCI   7
HALLOCK        CLOUDY    21  18  86 SE16      29.92F WCI   7
ROSEAU         LGT SNOW  19  16  86 S13       29.95F WCI   7
WARROAD        LGT SNOW  19  16  86 S9        29.96F WCI   9
THIEF RVR FALL LGT SNOW  19  18  93 SE12      29.95F FOG     WCI   7
CROOKSTON      FLURRIES  25  16  68 S16       29.94F WCI  12
FOSSTON        LGT SNOW  19  16  86 SE12      29.96F WCI   7
DETROIT LAKES  MOSUNNY   27  14  59 S15G21    29.96F WCI  15
MOORHEAD       CLOUDY    28  12  50 S20       29.94F WCI  15
PARK RAPIDS    LGT SNOW  20  15  81 S13       29.99F WCI   7
MAHNOMEN       FLURRIES  23  13  67 S13G18    29.94F WCI  11
$$
MNZ006-009>011-018-025>026-222100-
   North Central Minnesota

CITY           SKY/WX    TMP DP  RH WIND       PRES   REMARKS
BAUDETTE       CLOUDY    18  13  80 S9        29.97F WCI   7
FLAG ISLAND    MIX PCPN  18  14  86 S10       29.96F WCI   6
INTL FALLS       N/A     19  12  74 S8        30.01F WCI   9
WASKISH        LGT SNOW  19  16  86 S7        29.99S WCI  10
BIG FORK       LGT SNOW  19  16  86 S6        30.03F WCI  11
LONGVILLE      SNOW      19  16  86 S9        30.04F VSB 1/2 WCI   9
GRAND RAPIDS   LGT SNOW  19  15  84 S8        30.07F FOG     WCI   9
CRANE LAKE     LGT SNOW  18  12  79 S6        30.06F WCI   9
ORR            LGT SNOW  18  10  73 S6        30.01F WCI   9
COOK           LGT SNOW  19  12  73 SW7       30.04F WCI  10
WALKER         LGT SNOW  18  15  86 S8        30.01F WCI   8
$$
MNZ012-019>021-037-222100-
   Northeast Minnesota

CITY           SKY/WX    TMP DP  RH WIND       PRES   REMARKS
DULUTH         CLOUDY    20  12  71 SW13      30.06F WCI   7
ELY            CLOUDY    18  10  73 SW7       30.04F WCI   8
HIBBING        LGT SNOW  20  13  74 S9        30.05F WCI   9
EVELETH        FLURRIES  19  12  73 SW9       30.05F WCI   9
DULUTH HARBOR  MOSUNNY   25  14  63 SW10      30.14F WCI  15
TWO HARBORS    CLOUDY    25  16  68 SW9       30.08F WCI  15
SILVER BAY     CLOUDY    23  12  63 SW6       30.06F WCI  16
GRAND MARAIS     N/A     25  16  68 W8        30.10F WCI  16
G MARAIS ARPRT PTSUNNY   18   7  62 SW5       30.01F WCI  11
$$
MNZ029>031-032-039>041-046>048-054>057-064-222100-
   West Central Minnesota

CITY           SKY/WX    TMP DP  RH WIND       PRES   REMARKS
FERGUS FALLS   PTSUNNY   27  14  59 S20       29.99F WCI  13
WHEATON        CLOUDY    30  14  51 SE13      29.97F WCI  20
MORRIS         CLOUDY    30  14  51 S21G28    29.97F WCI  17
ALEXANDRIA     CLOUDY    26  13  57 S16       30.01F WCI  14
ELBOW LAKE     CLOUDY    27  13  56 SE15      29.98F HAZE    WCI  15
WADENA         MIX PCPN  23  12  63 S14       30.00F WCI  11
GLENWOOD       CLOUDY    27  14  59 S16G22    30.02F WCI  14
APPLETON       CLOUDY    34  12  40 S13G20    29.99F WCI  25
BENSON         CLOUDY    30  12  47 S15       30.03F WCI  19
ORTONVILLE       N/A     36  16  44 N14G23    29.95F
MADISON        CLOUDY    37  16  41 S16       29.98F
WILLMAR        FAIR      30  16  55 S7        30.08F WCI  23
$$
MNZ033>034-036-042>043-049>051-058-059-222100-
   Central Minnesota

CITY           SKY/WX    TMP DP  RH WIND       PRES   REMARKS
ST CLOUD       CLOUDY    24  13  62 S12       30.10F WCI  13
SAUK CENTRE    FAIR      25  13  59 S17       30.05F WCI  12
PAYNESVILLE    CLOUDY    27  16  62 S12       30.07F WCI  17
AITKIN         RAIN      19  16  86 S9        30.06F WCI   9
PINE RIVER     LGT SNOW  18  14  86 S8        30.08F WCI   7
BRAINERD       LGT SNOW  21  15  78 S10       30.07F WCI  10
STAPLES        CLOUDY    21  12  68 S13       30.04F WCI   9
LITTLE FALLS   CLOUDY    25   9  50 S9        30.09F WCI  15
LITCHFIELD     CLOUDY    28  16  59 S5        30.10F WCI  23
BUFFALO        CLOUDY    25  13  59 S8        30.15F WCI  17
MAPLE LAKE     PTSUNNY   27  16  64 S7        30.14F WCI  19
HUTCHINSON     CLOUDY    29  15  54 S12       30.12F WCI  19
$$
MNZ037-044-045-052-053-222100-
   East Central Minnesota

CITY           SKY/WX    TMP DP  RH WIND       PRES   REMARKS
PRINCETON      MOSUNNY   25  12  58 S7        30.13F WCI  17
MORA           PTSUNNY   21  18  86 S8        30.14F WCI  12
CAMBRIDGE      FLURRIES  25  16  68 S7        30.14F WCI  17
RUSH CITY      LGT SNOW  21  18  86 S8        30.15F WCI  12
MOOSE LAKE     CLOUDY    23  14  68 S9        30.10F WCI  13
HINCKLEY       LGT SNOW  23  19  86 S7        30.13F WCI  15
CLOQUET        PTSUNNY   21  10  63 SW8       30.08F WCI  12
MCGREGOR       CLOUDY    23  18  80 S9        30.08F WCI  13
$$
MNZ071>073-080-081-089-090-097-098-222100-
   Southwest Minnesota

CITY           SKY/WX    TMP DP  RH WIND       PRES   REMARKS
MONTEVIDEO     CLOUDY    32  14  47 S9G16     30.04F WCI  24
GRANITE FALLS  CLOUDY    35  15  45 S15G22    30.06F WCI  25
CANBY          CLOUDY    36  15  41 SW12      30.01F
MARSHALL       CLOUDY    36  13  38 S20       30.03F
REDWOOD FALLS  CLOUDY    33  12  41 S18       30.07F WCI  22
OLIVIA         CLOUDY    32  14  47 S10G18    30.06F WCI  24
PIPESTONE      CLOUDY    32  12  43 SW18      30.04F WCI  20
WINDOM           N/A     32  12  43 S15G24    30.07F WCI  22
WORTHINGTON    CLOUDY    32  12  43 S20G25    30.07F WCI  20
JACKSON        CLOUDY    32  12  43 S17       30.11F WCI  21
SLAYTON        CLOUDY    33   7  33 S22G28    30.05F WCI  20
$$
MNZ065>067-074>077-082>085-091>093-222100-
   South Central Minnesota

CITY           SKY/WX    TMP DP  RH WIND       PRES   REMARKS
MANKATO        MOSUNNY   28  15  58 S14       30.14F WCI  17
NEW ULM        CLOUDY    30  12  47 S7G17     30.09F WCI  23
ST JAMES       CLOUDY    32  12  43 S17       30.12F WCI  21
FAIRMONT       CLOUDY    32  15  49 S18       30.14F WCI  20
GLENCOE        PTSUNNY   29  15  55 S12       30.12F WCI  20
FARIBAULT      MOSUNNY   28  14  54 S8        30.17F WCI  20
OWATONNA       MOSUNNY   28  16  59 S13       30.17F WCI  18
WASECA         CLOUDY    30  16  55 S16       30.18F WCI  19
ALBERT LEA     CLOUDY    28  10  47 SW13      30.17F WCI  18
$$
MNZ078>079-086>088-094>096-222100-
   Southeast Minnesota

CITY           SKY/WX    TMP DP  RH WIND       PRES   REMARKS
ROCHESTER      CLOUDY    28  15  58 S15       30.16F WCI  16
RED WING       CLOUDY    28  10  47 S6        30.18F WCI  22
STANTON        CLOUDY    30  14  51 SW12G17   30.16F WCI  20
DODGE CENTER   CLOUDY    28  14  54 S16       30.15F WCI  17
WINONA         CLOUDY    30  14  51 SW7       30.22F WCI  23
AUSTIN         CLOUDY    28  12  50 SW14      30.17F WCI  17
PRESTON        MOSUNNY   27  13  55 SW9       30.19F WCI  18
$$
ABBREVIATIONS USED IN REMARKS
   TC - TEMPERATURES IN CELSIUS
  WCI - WIND CHILL INDEX
   HX - HEAT INDEX
  VSB - VISIBILITY
$$




USA.gov is the U.S. government's official web portal to all federal, state and local government web resources and services.